[Iaude] MPEC U248: 2023 TZ65 [a=2.46,e=0.74,i=7.0,H=29.6]

mpec at marsden.cfa.harvard.edu mpec at marsden.cfa.harvard.edu
Wed Oct 25 16:08:38 EDT 2023


M.P.E.C. 2023-U248                             Issued 2023 October 25, 20:07 UT

     The Minor Planet Electronic Circulars contain information on unusual
         minor planets, routine data on comets and natural satellites,
         and occasional editorial announcements.  They are published
    on behalf of Division F of the International Astronomical Union by the
          Minor Planet Center, Smithsonian Astrophysical Observatory,
                          Cambridge, MA 02138, U.S.A.
			  
             Prepared using the Tamkin Foundation Computer Network

                              MPC at CFA.HARVARD.EDU
            URL https://www.minorplanetcenter.net/    ISSN 1523-6714

                                   2023 TZ65                                    


Observations:
     K23T65Z* C2023 10 11.43138701 33 50.357+01 45 26.13         21.15wXEU248F51
     K23T65Z  C2023 10 11.44407501 33 44.910+01 43 12.15         20.96wXEU248F51
     K23T65Z  C2023 10 11.45679601 33 39.529+01 40 59.97         20.85wXEU248F51
     K23T65Z  C2023 10 11.55927901 33 01.413+01 24 37.90         20.90GVEU248F51
     K23T65Z  C2023 10 11.55974601 33 01.282+01 24 34.03               VEU248F51
     K23T65Z  C2023 10 12.39739701 31 47.001+00 05 57.02         23.13GVEU248F51
     K23T65Z  C2023 10 12.39820901 31 46.844+00 05 54.27         22.97GVEU248F51

Observer details:
F51 Pan-STARRS 1, Haleakala.  Observers J. Bulger, T. Lowe, P. Minguez, A.
    Schultz, I. Smith.  Measurers K. Chambers, T. de Boer, J. Bulger, J.
    Fairlamb, H. Gao, M. Huber, C.-C. Lin, T. Lowe, E. Magnier, P. Minguez, Y.
    Ramanjooloo, A. Schultz, I. Smith, R. Wainscoat, R. Weryk.  1.8-m Ritchey-
    Chretien + CCD.

Orbital elements:
2023 TZ65                                                Earth MOID = 0.0009 AU
Epoch 2023 Sept. 13.0 TT = JDT 2460200.5                Bell                    
M   4.40108              (2000.0)            P               Q                  
n   0.25534111     Peri.   98.51756     +0.42345716     +0.90523750             
a   2.4606823      Node   196.67006     -0.87180905     +0.39669006             
e   0.7398439      Incl.    7.01995     -0.24623771     +0.15225657             
P   3.86           H   29.63          G   0.15           U   9                  
Residuals in seconds of arc
231011 F51  0.2-  0.0     231011 F51  0.1-  0.1-    231012 F51  0.0   0.1+
231011 F51  0.1+  0.1+    231011 F51  0.1+  0.2+
231011 F51  0.1+  0.1-    231012 F51  0.0   0.1-

Ephemeris:
2023 TZ65                a,e,i = 2.46, 0.74, 7                   q = 0.6402
Date    TT    R. A. (2000) Decl.     Delta      r    Elong.  Phase     V
2023 09 25    13 27 02.2 +01 47 06   0.1918  0.8264    20.6   154.7
...
2023 10 10    12 25 10.6 +42 47 51   0.0017490.9977    49.7   130.2    21.6
...
2023 10 18    01 29 32.0 -01 26 40   0.09861 1.0936   169.2     9.8    25.4
...
2023 10 24    01 29 13.5 -01 33 15   0.1754  1.1657   165.8    12.1    26.9
2023 10 25    01 29 14.1 -01 32 22   0.1885  1.1777   165.1    12.5    27.1
2023 10 26    01 29 15.6 -01 31 07   0.2016  1.1897   164.4    13.0    27.3
...
2023 11 01    01 29 43.1 -01 17 48   0.2822  1.2612   159.8    15.8    28.2
...
2023 11 09    01 31 11.1 -00 48 32   0.3954  1.3553   153.1    19.3    29.3
...
2023 11 24    01 36 55.4 +00 31 36   0.6284  1.5264   140.7    24.2    30.7

M. P. C. Staff               (C) Copyright 2023 MPC           M.P.E.C. 2023-U248





More information about the Iaude mailing list